Snowfall_Accumulation
0.2 1.0 3.2 1.0 0.7 1.2 1.4 1.0 0.6 0.3 0.1 0.1 0.0 0.0 0.0 0.0 0.0 0.0 0.0 0.0 0.0 0.0 0.0 0.0 0.0 0.0 0.0 0.0 0.0 0.0 0.0 0.0 0.0 0.0 0.0 0.0 0.0 0.0 0.0 0.0 0.0 0.0 0.0 0.0
1.6 3.0 0.4 0.3 0.5 1.0 1.8 2.0 0.9 0.4 0.1 0.1 0.1 0.0 0.0 0.0 0.0 0.0 0.0 0.0 0.0 0.0 0.0 0.0 0.0 0.0 0.0 0.0 0.0 0.0 0.0 0.0 0.0 0.0 0.0 0.0 0.0 0.0 0.0 0.0 0.0 0.0 0.0 0.0
3.7 1.1 0.2 0.5 1.3 2.4 2.0 1.9 1.5 0.9 0.3 0.1 0.1 0.1 0.0 0.0 0.0 0.0 0.0 0.0 0.0 0.0 0.0 0.0 0.0 0.0 0.0 0.0 0.0 0.0 0.0 0.0 0.0 0.0 0.0 0.0 0.0 0.0 0.0 0.0 0.0 0.0 0.0 0.0
1.6 0.4 0.3 0.6 1.1 2.0 2.1 0.7 0.9 1.0 1.5 1.3 0.7 1.6 0.1 0.0 0.0 0.0 0.0 0.0 0.0 0.0 0.0 0.0 0.0 0.0 0.0 0.0 0.0 0.0 0.0 0.0 0.0 0.0 0.0 0.0 0.0 0.0 0.0 0.0 0.0 0.0 0.0 0.0
2.8 0.7 0.6 1.5 0.5 1.0 1.6 0.3 0.7 1.4 2.0 2.9 0.6 1.2 0.2 0.0 0.1 0.0 0.0 0.0 0.0 0.0 0.0 0.0 0.0 0.0 0.0 0.0 0.0 0.0 0.0 0.0 0.0 0.0 0.0 0.0 0.0 0.0 0.0 0.0 0.0 0.0 0.0 0.0
0.8 0.1 0.4 0.5 0.1 0.4 0.5 0.5 0.7 1.3 3.4 6.2 1.2 1.2 0.2 0.1 0.1 0.0 0.0 0.0 0.0 0.0 0.0 0.0 0.0 0.0 0.0 0.0 0.0 0.0 0.0 0.0 0.0 0.0 0.0 0.0 0.0 0.0 0.0 0.0 0.0 0.0 0.0 0.0
5.9 1.6 0.4 0.1 1.2 0.9 2.2 7.7 14.0 13.5 10.7 4.3 0.3 0.8 0.1 0.0 0.0 0.0 0.0 0.0 0.0 0.0 0.0 0.0 0.0 0.0 0.0 0.0 0.0 0.0 0.0 0.0 0.0 0.0 0.0 0.0 0.0 0.0 0.0 0.0 0.0 0.0 0.0 0.0
8.6 7.6 1.5 0.2 0.6 2.1 2.5 5.4 9.9 8.6 4.7 1.6 0.6 0.5 0.1 0.0 0.0 0.0 0.0 0.0 0.0 0.0 0.0 0.0 0.0 0.0 0.0 0.0 0.0 0.0 0.0 0.0 0.0 0.0 0.0 0.0 0.0 0.0 0.0 0.0 0.0 0.0 0.0 0.0
6.2 6.3 0.5 0.1 0.1 0.6 3.5 4.5 3.6 6.9 4.5 2.4 1.0 0.2 0.0 0.0 0.0 0.0 0.0 0.0 0.0 0.0 0.0 0.0 0.0 0.0 0.0 0.0 0.0 0.0 0.0 0.0 0.0 0.0 0.0 0.0 0.0 0.0 0.0 0.0 0.0 0.0 0.0 0.0
4.5 7.3 2.8 0.1 0.3 0.2 0.6 1.8 5.5 9.9 7.7 4.0 1.1 0.3 0.2 0.0 0.0 0.0 0.0 0.0 0.0 0.0 0.0 0.0 0.0 0.0 0.0 0.0 0.0 0.0 0.0 0.0 0.0 0.0 0.0 0.0 0.0 0.0 0.0 0.0 0.0 0.0 0.0 0.0
2.5 8.5 6.4 2.9 4.2 3.2 2.6 4.8 6.9 8.0 5.8 5.0 2.9 1.1 0.3 0.1 0.1 0.1 0.0 0.0 0.0 0.0 0.0 0.0 0.0 0.0 0.0 0.0 0.0 0.0 0.0 0.0 0.0 0.0 0.0 0.0 0.0 0.0 0.0 0.0 0.0 0.0 0.0 0.0
2.4 7.4 8.1 3.9 0.1 0.1 1.2 3.0 5.1 8.8 6.3 4.3 3.5 1.9 0.1 0.1 0.1 0.0 0.0 0.0 0.0 0.0 0.0 0.0 0.0 0.0 0.0 0.0 0.0 0.0 0.0 0.0 0.0 0.0 0.0 0.0 0.0 0.0 0.0 0.0 0.0 0.0 0.0 0.0
1.9 7.4 9.4 5.4 1.7 0.6 3.2 2.2 2.8 5.5 8.4 6.8 5.0 2.4 0.1 0.1 0.0 0.0 0.0 0.0 0.0 0.0 0.0 0.0 0.0 0.0 0.0 0.0 0.0 0.0 0.0 0.0 0.0 0.0 0.0 0.0 0.0 0.0 0.0 0.0 0.0 0.0 0.0 0.0
0.6 5.6 7.0 6.1 4.2 4.1 4.7 3.3 3.0 7.5 10.4 6.1 3.4 2.3 0.9 0.4 0.2 0.1 0.0 0.0 0.0 0.0 0.0 0.0 0.0 0.0 0.0 0.0 0.0 0.0 0.0 0.0 0.0 0.0 0.0 0.0 0.0 0.0 0.0 0.0 0.0 0.0 0.0 0.0
1.0 6.7 4.6 2.9 1.1 2.0 2.6 2.0 2.0 4.7 5.3 6.1 3.1 1.9 1.1 0.6 0.4 0.0 0.0 0.0 0.0 0.0 0.0 0.0 0.0 0.0 0.0 0.0 0.0 0.0 0.0 0.0 0.0 0.1 0.0 0.0 0.0 0.1 0.0 0.0 0.0 0.0 0.0 0.0
1.3 4.2 4.8 3.0 1.0 1.3 2.0 1.1 1.2 2.0 1.9 3.1 2.4 1.6 0.3 0.3 0.1 0.0 0.0 0.0 0.0 0.0 0.0 0.0 0.0 0.0 0.0 0.0 0.0 0.0 0.0 0.0 0.0 0.0 0.0 0.0 0.0 0.0 0.0 0.1 0.1 0.0 0.2 0.3
1.2 3.0 5.7 4.0 1.0 1.7 3.4 0.9 1.1 1.5 1.2 1.8 2.7 1.5 0.3 0.4 0.3 0.0 0.0 0.0 0.0 0.0 0.0 0.0 0.0 0.0 0.0 0.0 0.0 0.0 0.0 0.0 0.0 0.0 0.0 0.1 0.0 0.0 0.0 0.0 0.3 0.0 0.3 0.3
0.9 2.4 4.8 4.1 2.8 3.8 1.0 0.1 0.3 0.7 1.0 0.7 0.8 0.5 0.3 0.2 0.2 0.1 0.0 0.1 0.1 0.0 0.0 0.0 0.0 0.0 0.0 0.0 0.0 0.0 0.1 0.1 0.1 0.0 0.0 0.0 0.0 0.1 0.2 0.5 0.9 1.0 1.0 1.1
0.2 1.0 4.8 4.7 3.7 2.1 0.3 0.1 0.2 0.6 1.0 0.4 0.4 0.3 0.1 0.1 0.0 0.0 0.1 0.0 0.0 0.0 0.0 0.0 0.0 0.0 0.1 0.1 0.1 0.1 0.1 0.1 0.2 0.6 0.5 0.8 0.7 0.6 1.1 1.5 1.6 1.5 1.4 1.5
0.2 0.6 3.5 4.3 3.9 2.4 0.9 0.2 0.1 0.4 1.5 0.3 0.2 0.3 0.2 0.2 0.5 0.5 0.2 0.0 0.0 0.0 0.1 0.1 0.1 0.1 0.1 0.1 0.1 0.1 0.4 0.3 0.5 0.7 0.8 0.7 0.9 1.0 1.1 1.6 1.5 1.7 1.8 1.8
1.3 2.1 3.5 3.3 3.2 1.3 0.6 0.2 0.2 1.3 3.9 0.4 0.3 0.4 0.4 0.4 0.6 0.4 0.1 0.2 0.1 0.1 0.1 0.1 0.1 0.2 0.3 0.2 0.2 0.4 0.9 0.9 0.9 0.8 0.7 0.9 0.7 1.0 1.1 1.1 1.5 1.0 1.6 1.5
1.1 1.6 1.7 1.7 2.5 1.4 0.4 0.7 1.2 1.1 0.5 0.3 0.2 0.2 0.3 0.2 0.1 0.1 0.1 0.0 0.1 0.2 0.2 0.3 0.3 0.4 0.8 0.1 0.5 1.1 1.2 1.3 1.4 1.1 1.1 1.0 1.0 0.9 0.8 0.8 0.9 1.0 0.7 0.5
1.0 1.3 1.3 1.2 1.4 0.6 0.5 0.7 0.7 0.6 0.6 0.4 0.2 0.1 0.1 0.1 0.1 0.2 0.2 0.1 0.0 0.0 0.1 0.2 0.3 0.4 0.3 0.5 0.6 1.4 1.6 1.6 1.1 1.2 1.3 0.9 0.9 0.7 0.6 0.4 0.3 0.4 0.3 0.2
0.7 0.5 0.7 1.0 0.7 0.6 0.5 0.6 0.7 0.7 0.4 0.0 0.1 0.1 0.1 0.1 0.1 0.1 0.1 0.1 0.0 0.0 0.0 0.1 0.1 0.2 0.4 0.4 0.6 0.6 0.8 0.5 0.3 0.4 0.5 0.5 0.3 0.3 0.2 0.1 0.1 0.1 0.0 0.1
0.6 0.6 0.8 0.9 0.4 0.3 0.2 0.2 0.2 0.1 0.0 0.0 0.0 0.0 0.0 0.0 0.1 0.1 0.1 0.1 0.1 0.1 0.0 0.1 0.1 0.1 0.1 0.2 0.2 0.1 0.1 0.1 0.1 0.1 0.1 0.1 0.1 0.1 0.0 0.0 0.0 0.0 0.0 0.0
0.4 0.6 1.1 1.0 0.3 0.4 0.2 0.0 0.0 0.1 0.1 0.0 0.0 0.0 0.0 0.0 0.0 0.1 0.0 0.1 0.0 0.0 0.0 0.1 0.1 0.1 0.1 0.2 0.2 0.2 0.1 0.1 0.1 0.0 0.0 0.0 0.0 0.0 0.0 0.1 0.1 0.1 0.0 0.0